User: anonymous   Login
Location: Dover
(39.1580°N, 75.5250°W)
Time: 17:51:43
(UTC-04:00)
Language:

SeaSat 1 - Orbit

View from above orbital plane
View from above orbital plane
View from above satellite
View from above satellite

Ground track
Ground track

The orbit data is extracted from the following two-line orbital elements,

1 10967U 78064A   17265.75665540 -.00000050  00000-0  25629-4 0  9991
2 10967 108.0100 143.3595 0001669 309.2974  50.8023 14.43663487 60685
Epoch (UTC): 22 September 2017 18:09:35
Eccentricity: 0.0001669
inclination: 108.0100°
perigee height: 745 km
apogee height: 747 km
right ascension of ascending node: 143.3595°
argument of perigee: 309.2974°
revolutions per day: 14.43663487
mean anomaly at epoch: 50.8023°
orbit number at epoch: 6068

The dashed part of the orbit path shows where the satellite is in the earth's shadow,  

DLR